This is the latest recevied weather packets stored in our database for station/object KP4CRN. If no packets are shown the sender has not sent any weather packets the latest 10 day(s).
| Time | Temp. | Humidity | Pressure | Rain* | Wind** | Luminosity | Snow |
|---|---|---|---|---|---|---|---|
| 1777586852 | 26.67° C | 95% | 1012.6 hPa | 0 mm | - | 5 W/m² | - |
| 1777586548 | 26.67° C | 94% | 1012.5 hPa | 1.78 mm | - | 6 W/m² | - |
| 1777586244 | 26.67° C | 94% | 1012.3 hPa | 1.78 mm | - | 6 W/m² | - |
| 1777585941 | 26.67° C | 94% | 1012.5 hPa | 0 mm | - | 8 W/m² | - |
| 1777585636 | 26.67° C | 94% | 1012.5 hPa | 0 mm | - | 9 W/m² | - |
| 1777585331 | 26.67° C | 94% | 1012.3 hPa | 0 mm | - | 9 W/m² | - |
| 1777585027 | 26.67° C | 94% | 1012.2 hPa | 0 mm | - | 12 W/m² | - |
| 1777584723 | 26.67° C | 94% | 1012 hPa | 1.27 mm | - | 12 W/m² | - |
| 1777584421 | 26.67° C | 93% | 1012.3 hPa | 1.27 mm | - | 10 W/m² | - |
| 1777584117 | 27.22° C | 92% | 1012.2 hPa | 1.78 mm | - | 10 W/m² | - |
| 1777583815 | 27.22° C | 92% | 1012.1 hPa | 1.78 mm | - | 10 W/m² | - |
| 1777583506 | 27.22° C | 91% | 1012.2 hPa | 0 mm | - | 9 W/m² | - |
| 1777583205 | 27.22° C | 91% | 1012.1 hPa | 0 mm | - | 10 W/m² | - |
| 1777582895 | 27.22° C | 91% | 1012.2 hPa | 0 mm | - | 10 W/m² | - |
| 1777582593 | 27.22° C | 91% | 1011.8 hPa | 0 mm | - | 11 W/m² | - |
| 1777582288 | 27.22° C | 91% | 1011.9 hPa | 0 mm | - | 12 W/m² | - |
| 1777581986 | 27.78° C | 90% | 1011.6 hPa | 0 mm | - | 14 W/m² | - |
| 1777581681 | 27.78° C | 90% | 1012 hPa | 0 mm | - | 17 W/m² | - |
| 1777581375 | 27.78° C | 89% | 1011.8 hPa | 0 mm | - | 24 W/m² | - |
| 1777581070 | 27.78° C | 89% | 1011.6 hPa | 0 mm | - | 26 W/m² | - |
| 1777580769 | 27.78° C | 88% | 1011.5 hPa | 0 mm | - | 28 W/m² | - |
| 1777580465 | 28.33° C | 86% | 1011.4 hPa | 0 mm | - | 25 W/m² | - |
| 1777580159 | 28.33° C | 85% | 1011.6 hPa | 0 mm | - | 27 W/m² | - |
| 1777579857 | 28.89° C | 84% | 1011.5 hPa | 0 mm | - | 28 W/m² | - |
| 1777579556 | 28.89° C | 82% | 1011.5 hPa | 0 mm | - | 29 W/m² | - |
* Rain latest hour (hover to see other rain measurements)
** Current wind speed in m/s (hover to see current wind gust speed)